[[{"header":{"parameterUnit":"m.s-1","parameterCategory":1,"la1":30.2991,"la2":30.254,"lo1":-89.0895,"lo2":-89.0444,"dy":0.0017,"dx":0.0017,"nx":28,"ny":28,"refTime":"2023-05-28T21:00:00:Z","depth":0,"parameterNumber":2,"parameterNumberName":"U-component_of_WINDS"},"data":[0,0,0,0,0,0,0,0,0,0,0,0,0,0,0,0,0,0,0,0,0,0,0,0,0,0,0,0,0,0,0,0,0,0,0,0,0,0,0,0,0,0,0,0,0,0,0,0,0,0,0,0,0,0,0,0,0,0,-0.8421,-0.8421,0,-0.8402,-0.8402,-0.8401,-0.8401,-0.8401,-0.8401,-0.8402,-0.8378,-0.8377,-0.8377,0,0,0,0,0,0,0,0,0,0,0,0,0,-0.8455,-0.8455,-0.8421,-0.8421,-0.8421,-0.8402,-0.8402,-0.8401,-0.8401,-0.8401,-0.8401,-0.8402,-0.8379,-0.8378,-0.8377,0,0,0,0,0,0,0,0,0,0,0,0,0,-0.8439,-0.8455,-0.8421,-0.8418,-0.8418,-0.8402,-0.8402,-0.8401,-0.8401,-0.8401,-0.8401,-0.8402,-0.8379,-0.8378,-0.8376,-0.8361,0,0,-0.8373,-0.8372,0,0,0,0,0,0,0,0,-0.844,-0.8437,-0.8419,-0.8418,-0.8418,-0.8404,-0.8405,-0.8388,-0.8401,-0.8407,-0.8402,-0.8402,-0.8386,-0.8385,-0.838,-0.836,-0.8359,-0.8372,-0.8372,-0.8371,-0.8371,0,0,0,0,0,0,0,-0.8441,-0.8438,-0.8413,-0.8419,-0.8418,-0.8417,-0.8415,-0.8402,-0.8395,-0.8407,-0.8407,-0.8404,-0.8386,-0.8381,-0.8379,-0.8359,-0.8372,-0.8371,-0.8371,-0.837,-0.8326,-0.8326,0,0,0,0,0,0,-0.8443,-0.8439,-0.8414,-0.8413,-0.843,-0.8416,-0.8414,-0.8408,-0.8395,-0.8393,-0.8404,-0.8404,-0.8383,-0.8381,-0.8379,-0.836,-0.8371,-0.837,-0.8369,-0.8326,-0.8326,-0.8325,0,0,0,0,0,0,-0.8444,-0.8441,-0.8415,-0.8426,-0.8423,-0.8415,-0.8409,-0.8408,-0.8403,-0.8393,-0.8392,-0.8401,-0.8383,-0.838,-0.8366,-0.8359,-0.8369,-0.8368,-0.8327,-0.8326,-0.8326,-0.8323,0,0,0,0,0,0,-0.8445,-0.8441,-0.8436,-0.8426,-0.8422,-0.8403,-0.8408,-0.8407,-0.8401,-0.8401,-0.8389,-0.8388,-0.8383,-0.8368,-0.8365,-0.8358,-0.8367,-0.8327,-0.8327,-0.8326,-0.8324,-0.8322,-0.8321,0,0,0,0,0,-0.8446,-0.8435,-0.8435,-0.8432,-0.8415,-0.8403,-0.8401,-0.8397,-0.84,-0.8395,-0.8389,-0.8388,-0.8361,-0.8366,-0.8363,-0.8355,-0.8328,-0.8327,-0.8326,-0.8324,-0.8323,-0.8321,0,0,0,0,0,0,-0.8442,-0.8433,-0.8434,-0.842,-0.8412,-0.8403,-0.8395,-0.8395,-0.8386,-0.8386,-0.8381,-0.8378,-0.8364,-0.8358,-0.8365,-0.834,-0.8345,-0.8343,-0.8344,-0.8343,-0.8342,-0.8343,-0.8366,0,0,0,0,0,-0.844,-0.8432,-0.8424,-0.8412,-0.8408,-0.8403,-0.8397,-0.8395,-0.8387,-0.8383,-0.8376,-0.8367,-0.8357,-0.8349,-0.8339,-0.8323,-0.832,-0.8316,-0.8315,-0.8314,-0.8313,-0.8304,-0.8302,-0.8322,-0.8322,-0.8322,0,0,-0.8435,-0.8429,-0.8424,-0.8411,-0.8405,-0.8396,-0.84,-0.8389,-0.8382,-0.8381,-0.8367,-0.8362,-0.8352,-0.8337,-0.8329,-0.8331,-0.8307,-0.8313,-0.8313,-0.8311,-0.8303,-0.8301,-0.8299,-0.8322,-0.8322,-0.8322,0,0,-0.8421,-0.8416,-0.8405,-0.84,-0.8391,-0.8388,-0.8385,-0.8376,-0.8373,-0.8359,-0.8359,-0.835,-0.8331,-0.8324,-0.8318,-0.8303,-0.8302,-0.83,-0.8293,-0.8285,-0.8283,-0.8282,-0.8276,-0.8274,-0.8298,-0.8298,-0.8298,0,-0.8415,-0.8402,-0.84,-0.839,-0.8384,-0.8384,-0.8374,-0.8368,-0.8356,-0.8352,-0.8354,-0.8332,-0.8325,-0.8309,-0.8305,-0.83,-0.8297,-0.8301,-0.8284,-0.8282,-0.8281,-0.8276,-0.8274,-0.8298,-0.8298,-0.8298,-0.8298,0,-0.8395,-0.8386,-0.8378,-0.8368,-0.8362,-0.8352,-0.8348,-0.8341,-0.834,-0.8336,-0.8322,-0.8315,-0.8303,-0.8299,-0.8297,-0.8282,-0.8284,-0.8285,-0.8289,-0.8279,-0.8274,-0.8272,-0.8298,-0.8298,-0.8298,-0.8298,0,0,-0.8377,-0.8367,-0.8364,-0.836,-0.8351,-0.8344,-0.8333,-0.8323,-0.8318,-0.831,-0.8301,-0.8286,-0.8288,-0.8281,-0.8279,-0.8272,-0.826,-0.8274,-0.8274,-0.8272,-0.8243,-0.8242,-0.8239,-0.826,-0.826,-0.8259,-0.8244,0,-0.8362,-0.8344,-0.8343,-0.8327,-0.8318,-0.8319,-0.831,-0.8303,-0.8299,-0.8291,-0.8287,-0.8276,-0.828,-0.8276,-0.8269,-0.8263,-0.8254,-0.8264,-0.8251,-0.825,-0.8253,-0.8237,-0.8235,-0.8221,-0.8242,-0.8242,-0.8241,0,-0.8341,-0.8334,-0.8317,-0.8311,-0.8307,-0.8299,-0.829,-0.8282,-0.8275,-0.8273,-0.8266,-0.8265,-0.8254,-0.8259,-0.8243,-0.825,-0.8245,-0.8241,-0.8241,-0.8239,-0.8245,-0.8234,-0.8216,-0.8214,-0.8238,-0.8238,-0.8239,0,-0.8329,-0.8315,-0.8304,-0.83,-0.8292,-0.8286,-0.8283,-0.8276,-0.827,-0.8262,-0.8258,-0.8249,-0.8243,-0.8235,-0.8232,-0.8236,-0.8216,-0.8221,-0.8214,-0.8214,-0.8209,-0.8209,-0.8189,-0.8206,-0.8206,-0.8206,-0.8206,0,-0.8312,-0.8302,-0.8299,-0.8292,-0.828,-0.8279,-0.8267,-0.8263,-0.8257,-0.8249,-0.8249,-0.8241,-0.8237,-0.8228,-0.8225,-0.8213,-0.821,-0.8208,-0.8207,-0.8207,-0.8208,-0.8203,-0.8204,-0.8206,-0.8206,-0.8206,-0.8206,0,-0.8296,-0.8294,-0.8282,-0.8275,-0.8274,-0.8265,-0.826,-0.8253,-0.825,-0.8239,-0.8237,-0.8232,-0.8222,-0.8218,-0.8205,-0.8203,-0.8188,-0.8188,-0.8191,-0.8191,-0.8183,-0.8184,-0.816,-0.8156,-0.8176,-0.8176,-0.8175,0,-0.8285,-0.8277,-0.8271,-0.8266,-0.8262,-0.8254,-0.8249,-0.8247,-0.8241,-0.8233,-0.8227,-0.8217,-0.8209,-0.8193,-0.8188,-0.8178,-0.8178,-0.817,-0.8176,-0.8177,-0.8177,-0.8177,-0.8177,-0.8168,-0.8168,-0.8168,-0.8168,0,-0.8265,-0.8265,-0.8258,-0.825,-0.8244,-0.8238,-0.8232,-0.8227,-0.8225,-0.8218,-0.8209,-0.8203,-0.8191,-0.8181,-0.8172,-0.8167,-0.8167,-0.8166,-0.8164,-0.8164,-0.8166,-0.8164,-0.8188,-0.8166,-0.8167,-0.8167,-0.8167,-0.8167,-0.8251,-0.8245,-0.8239,-0.8231,-0.8227,-0.8222,-0.8215,-0.8212,-0.8204,-0.8195,-0.8194,-0.8184,-0.8177,-0.8164,-0.8159,-0.8151,-0.8153,-0.8149,-0.8148,-0.8147,-0.8147,-0.8168,-0.8149,-0.8149,-0.8149,-0.8149,-0.8149,0,-0.8231,-0.8228,-0.8221,-0.8213,-0.8207,-0.8209,-0.8203,-0.8197,-0.8188,-0.8182,-0.8175,-0.8164,-0.8155,-0.815,-0.8141,-0.8135,-0.8135,-0.8133,-0.8133,-0.8132,-0.8146,-0.8149,-0.8133,-0.8133,-0.8133,-0.8133,-0.8133,-0.8133,-0.822,-0.8209,-0.8208,-0.8195,-0.8192,-0.8183,-0.8179,-0.8174,-0.8169,-0.8158,-0.8151,-0.8148,-0.8142,-0.8133,-0.8124,-0.8123,-0.8119,-0.8117,-0.8116,-0.8129,-0.813,-0.8132,-0.8135,-0.8116,-0.8116,-0.8102,-0.8102,-0.8102]},{"header":{"parameterUnit":"m.s-1","parameterCategory":1,"la1":30.2991,"la2":30.254,"lo1":-89.0895,"lo2":-89.0444,"dy":0.0017,"dx":0.0017,"nx":28,"ny":28,"refTime":"2023-05-28T21:00:00:Z","depth":0,"parameterNumber":3,"parameterNumberName":"V-component_of_WINDS"},"data":[0,0,0,0,0,0,0,0,0,0,0,0,0,0,0,0,0,0,0,0,0,0,0,0,0,0,0,0,0,0,0,0,0,0,0,0,0,0,0,0,0,0,0,0,0,0,0,0,0,0,0,0,0,0,0,0,0,0,3.529,3.529,0,3.5284,3.5284,3.5283,3.5334,3.5336,3.5337,3.5339,3.5325,3.5323,3.5321,0,0,0,0,0,0,0,0,0,0,0,0,0,3.5342,3.5341,3.529,3.529,3.529,3.5284,3.5284,3.5283,3.5334,3.5336,3.5338,3.5339,3.5325,3.5323,3.5321,0,0,0,0,0,0,0,0,0,0,0,0,0,3.5326,3.5341,3.5291,3.5315,3.5317,3.5284,3.5284,3.5283,3.5334,3.5336,3.5338,3.534,3.5326,3.5324,3.5321,3.5262,0,0,3.5313,3.5312,0,0,0,0,0,0,0,0,3.5327,3.5324,3.5311,3.5313,3.5316,3.5312,3.5297,3.5276,3.5333,3.5327,3.5339,3.5341,3.5318,3.5317,3.531,3.5261,3.5261,3.5313,3.5311,3.531,3.531,0,0,0,0,0,0,0,3.5328,3.5324,3.5288,3.5311,3.5314,3.5325,3.5325,3.5293,3.531,3.5328,3.5332,3.533,3.532,3.5313,3.531,3.526,3.5313,3.5311,3.5309,3.5308,3.5163,3.5161,0,0,0,0,0,0,3.5326,3.5325,3.5288,3.5287,3.5327,3.5322,3.5322,3.5311,3.5311,3.5313,3.5329,3.5333,3.5316,3.5313,3.531,3.5242,3.531,3.5308,3.5306,3.5166,3.5163,3.516,0,0,0,0,0,0,3.5327,3.5323,3.5288,3.5307,3.5304,3.5319,3.5306,3.531,3.5303,3.5312,3.5314,3.5318,3.5318,3.5314,3.5274,3.5242,3.5307,3.5304,3.5168,3.5165,3.5162,3.5103,0,0,0,0,0,0,3.5329,3.5323,3.5301,3.5307,3.5303,3.5254,3.5304,3.5308,3.5299,3.5304,3.5303,3.5305,3.5319,3.5278,3.5272,3.5239,3.5302,3.5171,3.5167,3.5163,3.5108,3.5098,3.509,0,0,0,0,0,3.533,3.5283,3.53,3.5295,3.5277,3.5252,3.5249,3.5269,3.5296,3.5274,3.528,3.5305,3.5247,3.5273,3.5267,3.5233,3.5173,3.5168,3.5163,3.5112,3.51,3.509,0,0,0,0,0,0,3.5271,3.5284,3.5303,3.5257,3.5253,3.526,3.5233,3.5255,3.5242,3.5247,3.527,3.5269,3.5226,3.5226,3.5255,3.5177,3.5215,3.5208,3.5178,3.5167,3.5158,3.5158,3.53,0,0,0,0,0,3.5253,3.5234,3.5246,3.5204,3.5201,3.5218,3.5207,3.5223,3.5219,3.5217,3.522,3.5214,3.5194,3.5181,3.5163,3.5109,3.5109,3.5083,3.5073,3.5066,3.5059,3.5032,3.502,3.5143,3.5143,3.5143,0,0,3.5215,3.522,3.5206,3.5192,3.5191,3.5169,3.5216,3.519,3.5173,3.5212,3.5176,3.5178,3.5172,3.5126,3.5105,3.5124,3.5026,3.5059,3.5053,3.5051,3.5025,3.5013,3.5003,3.514,3.514,3.5141,0,0,3.5134,3.5136,3.5102,3.5101,3.51,3.5112,3.5103,3.5108,3.5111,3.5076,3.5105,3.5085,3.5051,3.5046,3.5039,3.4959,3.498,3.4952,3.4904,3.4876,3.4866,3.4858,3.4829,3.4819,3.4946,3.4946,3.4946,0,3.5086,3.5056,3.5081,3.5055,3.5047,3.5085,3.505,3.5047,3.5039,3.5032,3.5055,3.5014,3.5012,3.4965,3.4946,3.4939,3.493,3.4952,3.4866,3.4858,3.485,3.4823,3.4812,3.4942,3.4943,3.4943,3.4943,0,3.4997,3.4976,3.4948,3.4943,3.4933,3.4902,3.4921,3.4907,3.4924,3.4933,3.4896,3.4897,3.488,3.4871,3.4885,3.4826,3.4838,3.4863,3.4901,3.4835,3.481,3.4799,3.4937,3.4939,3.494,3.494,0,0,3.4877,3.4888,3.4878,3.4876,3.4879,3.4862,3.4832,3.4819,3.4807,3.4801,3.4776,3.4747,3.4771,3.4763,3.4778,3.4754,3.4691,3.4782,3.4782,3.4765,3.4625,3.4607,3.4594,3.4706,3.4704,3.4703,3.4626,0,3.4799,3.4752,3.4774,3.4723,3.4704,3.474,3.4714,3.4712,3.472,3.4703,3.4711,3.4691,3.4724,3.4719,3.4697,3.4703,3.4663,3.4709,3.4682,3.4681,3.4682,3.4581,3.4561,3.4488,3.4616,3.4615,3.4614,0,3.47,3.4693,3.4641,3.4649,3.4642,3.4618,3.4609,3.4593,3.4591,3.4598,3.4591,3.4612,3.4582,3.4622,3.4581,3.4612,3.4603,3.4604,3.4602,3.4599,3.4643,3.4575,3.4465,3.4454,3.4598,3.46,3.4601,0,3.4618,3.4595,3.4562,3.4559,3.4567,3.455,3.4552,3.4553,3.4544,3.4535,3.4529,3.4516,3.4508,3.4497,3.4514,3.4541,3.447,3.4511,3.4475,3.4474,3.4457,3.4458,3.4344,3.4452,3.4452,3.4452,3.4452,0,3.4528,3.4495,3.4525,3.4504,3.4468,3.4494,3.4457,3.4463,3.4463,3.4443,3.4473,3.4453,3.4477,3.4459,3.4471,3.4436,3.4432,3.4437,3.444,3.4434,3.4433,3.4427,3.4432,3.4449,3.445,3.445,3.4451,0,3.4429,3.4449,3.4415,3.4426,3.4428,3.4401,3.441,3.439,3.4401,3.4376,3.4371,3.4387,3.4368,3.4384,3.4364,3.4373,3.4326,3.4337,3.4327,3.433,3.4293,3.4296,3.417,3.4155,3.4273,3.4272,3.4271,0,3.437,3.4346,3.4356,3.4346,3.4347,3.433,3.4322,3.4347,3.4337,3.4334,3.4315,3.4299,3.4287,3.4254,3.4263,3.4249,3.4259,3.4216,3.4257,3.4252,3.4258,3.426,3.4257,3.4207,3.4206,3.4205,3.4204,0,3.4263,3.4275,3.4263,3.4255,3.4245,3.4239,3.4235,3.4225,3.4251,3.4238,3.422,3.4211,3.4193,3.4176,3.4165,3.4166,3.4188,3.4191,3.4182,3.4175,3.417,3.4173,3.4304,3.4194,3.4195,3.4195,3.4196,3.4196,3.4182,3.4163,3.4168,3.4154,3.4155,3.4151,3.4134,3.4144,3.413,3.4119,3.4134,3.4112,3.4112,3.41,3.4098,3.408,3.4098,3.4084,3.4081,3.4077,3.4072,3.4174,3.4078,3.4078,3.4078,3.4079,3.4079,0,3.4077,3.4082,3.407,3.4065,3.4054,3.408,3.4078,3.4066,3.4047,3.4046,3.4035,3.4015,3.4,3.4008,3.3995,3.3979,3.3989,3.3975,3.3976,3.3976,3.4057,3.4066,3.3967,3.3967,3.3967,3.3967,3.3967,3.3967,3.4021,3.399,3.4002,3.3971,3.3977,3.3957,3.3954,3.395,3.395,3.3927,3.3915,3.3922,3.3925,3.3912,3.3899,3.3902,3.3895,3.3877,3.3883,3.3959,3.397,3.398,3.3989,3.3875,3.3875,3.3804,3.3803,3.3803]}]]